,Coso Junction,Coso Junction
,PM10_1HR,PM10_1HR
,UG/M3,UG/M3
Date,Value,Null Code
01-Oct-2022 00:00,19,
01-Oct-2022 01:00,19.1,
01-Oct-2022 02:00,17.8,
01-Oct-2022 03:00,14.2,
01-Oct-2022 04:00,11.4,
01-Oct-2022 05:00,11.5,
01-Oct-2022 06:00,12.5,
01-Oct-2022 07:00,8.8,
01-Oct-2022 08:00,11.9,
01-Oct-2022 09:00,11.4,
01-Oct-2022 10:00,11.7,
01-Oct-2022 11:00,16.5,
01-Oct-2022 12:00,16.5,
01-Oct-2022 13:00,15.5,
01-Oct-2022 14:00,23.8,
01-Oct-2022 15:00,29.6,
01-Oct-2022 16:00,27.8,
01-Oct-2022 17:00,15.6,
01-Oct-2022 18:00,15,
01-Oct-2022 19:00,15.1,
01-Oct-2022 20:00,17.4,
01-Oct-2022 21:00,17.1,
01-Oct-2022 22:00,17.3,
01-Oct-2022 23:00,18.1,
02-Oct-2022 00:00,18.2,
02-Oct-2022 01:00,17.9,
02-Oct-2022 02:00,15.6,
02-Oct-2022 03:00,22,
02-Oct-2022 04:00,24.5,
02-Oct-2022 05:00,30.7,
02-Oct-2022 06:00,22.9,
02-Oct-2022 07:00,24.2,
02-Oct-2022 08:00,30.9,
02-Oct-2022 09:00,26.9,
02-Oct-2022 10:00,25.3,
02-Oct-2022 11:00,26.4,
02-Oct-2022 12:00,25.5,
02-Oct-2022 13:00,18.4,
02-Oct-2022 14:00,14.4,
02-Oct-2022 15:00,16.4,
02-Oct-2022 16:00,19.5,
02-Oct-2022 17:00,15.8,
02-Oct-2022 18:00,15.7,
02-Oct-2022 19:00,15.3,
02-Oct-2022 20:00,14.4,
02-Oct-2022 21:00,12.3,
02-Oct-2022 22:00,14.4,
02-Oct-2022 23:00,14.4,
03-Oct-2022 00:00,12.1,
03-Oct-2022 01:00,9.8,
03-Oct-2022 02:00,13.8,
03-Oct-2022 03:00,17,
03-Oct-2022 04:00,14.7,
03-Oct-2022 05:00,14,
03-Oct-2022 06:00,14.1,
03-Oct-2022 07:00,14.7,
03-Oct-2022 08:00,14.5,
03-Oct-2022 09:00,13.9,
03-Oct-2022 10:00,14.3,
03-Oct-2022 11:00,12.5,
03-Oct-2022 12:00,8.7,
03-Oct-2022 13:00,10.5,
03-Oct-2022 14:00,15.2,
03-Oct-2022 15:00,11.9,
03-Oct-2022 16:00,15.8,
03-Oct-2022 17:00,11.7,
03-Oct-2022 18:00,11.4,
03-Oct-2022 19:00,10.5,
03-Oct-2022 20:00,9.4,
03-Oct-2022 21:00,10.9,
03-Oct-2022 22:00,9.5,
03-Oct-2022 23:00,22,
04-Oct-2022 00:00,7.9,
04-Oct-2022 01:00,13,
04-Oct-2022 02:00,7,
04-Oct-2022 03:00,9.8,
04-Oct-2022 04:00,8.8,
04-Oct-2022 05:00,10,
04-Oct-2022 06:00,11.2,
04-Oct-2022 07:00,9,
04-Oct-2022 08:00,11.6,
04-Oct-2022 09:00,7.2,
04-Oct-2022 10:00,8.4,
04-Oct-2022 11:00,7.8,
04-Oct-2022 12:00,8.1,
04-Oct-2022 13:00,8.4,
04-Oct-2022 14:00,20.2,
04-Oct-2022 15:00,13.6,
04-Oct-2022 16:00,15.7,
04-Oct-2022 17:00,10.4,
04-Oct-2022 18:00,9.3,
04-Oct-2022 19:00,12.9,
04-Oct-2022 20:00,33.9,
04-Oct-2022 21:00,17.8,
04-Oct-2022 22:00,13.3,
04-Oct-2022 23:00,12,
05-Oct-2022 00:00,12.5,
05-Oct-2022 01:00,13.3,
05-Oct-2022 02:00,14.4,
05-Oct-2022 03:00,14.5,
05-Oct-2022 04:00,12,
05-Oct-2022 05:00,9.8,
05-Oct-2022 06:00,10.5,
05-Oct-2022 07:00,11.1,
05-Oct-2022 08:00,16.7,
05-Oct-2022 09:00,12.6,
05-Oct-2022 10:00,9.6,
05-Oct-2022 11:00,10.2,
05-Oct-2022 12:00,10.7,
05-Oct-2022 13:00,11.1,
05-Oct-2022 14:00,18.9,
05-Oct-2022 15:00,14.7,
05-Oct-2022 16:00,18,
05-Oct-2022 17:00,14.5,
05-Oct-2022 18:00,13.8,
05-Oct-2022 19:00,14.8,
05-Oct-2022 20:00,18.3,
05-Oct-2022 21:00,20.3,
05-Oct-2022 22:00,27.6,
05-Oct-2022 23:00,22.5,
06-Oct-2022 00:00,26.4,
06-Oct-2022 01:00,21.3,
06-Oct-2022 02:00,18.1,
06-Oct-2022 03:00,16.9,
06-Oct-2022 04:00,14.3,
06-Oct-2022 05:00,13.1,
06-Oct-2022 06:00,10.7,
06-Oct-2022 07:00,16.7,
06-Oct-2022 08:00,15.6,
06-Oct-2022 09:00,10.8,
06-Oct-2022 10:00,11.7,
06-Oct-2022 11:00,12.1,
06-Oct-2022 12:00,9.8,
06-Oct-2022 13:00,11.6,
06-Oct-2022 14:00,18.1,
06-Oct-2022 15:00,13.9,
06-Oct-2022 16:00,19.6,
06-Oct-2022 17:00,13.8,
06-Oct-2022 18:00,11.5,
06-Oct-2022 19:00,13.5,
06-Oct-2022 20:00,16.3,
06-Oct-2022 21:00,16,
06-Oct-2022 22:00,17.8,
06-Oct-2022 23:00,17.7,
07-Oct-2022 00:00,18,
07-Oct-2022 01:00,14.9,
07-Oct-2022 02:00,15.1,
07-Oct-2022 03:00,16.8,
07-Oct-2022 04:00,16,
07-Oct-2022 05:00,15.9,
07-Oct-2022 06:00,12.6,
07-Oct-2022 07:00,11.4,
07-Oct-2022 08:00,12.6,
07-Oct-2022 09:00,12.3,
07-Oct-2022 10:00,13.8,
07-Oct-2022 11:00,10.9,
07-Oct-2022 12:00,9,
07-Oct-2022 13:00,8.3,
07-Oct-2022 14:00,9.7,
07-Oct-2022 15:00,9.6,
07-Oct-2022 16:00,10.2,
07-Oct-2022 17:00,9.7,
07-Oct-2022 18:00,9.2,
07-Oct-2022 19:00,9.5,
07-Oct-2022 20:00,9.4,
07-Oct-2022 21:00,9.5,
07-Oct-2022 22:00,7.9,
07-Oct-2022 23:00,7.6,
08-Oct-2022 00:00,7.9,
08-Oct-2022 01:00,5,
08-Oct-2022 02:00,8.5,
08-Oct-2022 03:00,20.1,
08-Oct-2022 04:00,10.5,
08-Oct-2022 05:00,9.5,
08-Oct-2022 06:00,9.5,
08-Oct-2022 07:00,15.4,
08-Oct-2022 08:00,17.2,
08-Oct-2022 09:00,17.2,
08-Oct-2022 10:00,11.1,
08-Oct-2022 11:00,11.8,
08-Oct-2022 12:00,11.8,
08-Oct-2022 13:00,8.4,
08-Oct-2022 14:00,7.3,
08-Oct-2022 15:00,8.6,
08-Oct-2022 16:00,13.9,
08-Oct-2022 17:00,9.2,
08-Oct-2022 18:00,7.6,
08-Oct-2022 19:00,7,
08-Oct-2022 20:00,8.8,
08-Oct-2022 21:00,9.9,
08-Oct-2022 22:00,11.4,
08-Oct-2022 23:00,13.2,
09-Oct-2022 00:00,14.5,
09-Oct-2022 01:00,10.8,
09-Oct-2022 02:00,10.1,
09-Oct-2022 03:00,14.5,
09-Oct-2022 04:00,15.9,
09-Oct-2022 05:00,9.2,
09-Oct-2022 06:00,10.5,
09-Oct-2022 07:00,9.6,
09-Oct-2022 08:00,13.2,
09-Oct-2022 09:00,11,
09-Oct-2022 10:00,9.7,
09-Oct-2022 11:00,11.8,
09-Oct-2022 12:00,14.2,
09-Oct-2022 13:00,14.8,
09-Oct-2022 14:00,12,
09-Oct-2022 15:00,9.6,
09-Oct-2022 16:00,15,
09-Oct-2022 17:00,13,
09-Oct-2022 18:00,16,
09-Oct-2022 19:00,20.7,
09-Oct-2022 20:00,19.8,
09-Oct-2022 21:00,13.7,
09-Oct-2022 22:00,15.4,
09-Oct-2022 23:00,13.8,
10-Oct-2022 00:00,14.9,
10-Oct-2022 01:00,13.4,
10-Oct-2022 02:00,14.4,
10-Oct-2022 03:00,13.1,
10-Oct-2022 04:00,12.4,
10-Oct-2022 05:00,12.5,
10-Oct-2022 06:00,14.7,
10-Oct-2022 07:00,15.6,
10-Oct-2022 08:00,18.8,
10-Oct-2022 09:00,18.6,
10-Oct-2022 10:00,18.8,
10-Oct-2022 11:00,15.3,
10-Oct-2022 12:00,16.8,
10-Oct-2022 13:00,31.7,
10-Oct-2022 14:00,16,
10-Oct-2022 15:00,9.9,
10-Oct-2022 16:00,14,
10-Oct-2022 17:00,19.7,
10-Oct-2022 18:00,24.3,
10-Oct-2022 19:00,10.1,
10-Oct-2022 20:00,9.3,
10-Oct-2022 21:00,6.9,
10-Oct-2022 22:00,11.8,
10-Oct-2022 23:00,8.7,
11-Oct-2022 00:00,6.6,
11-Oct-2022 01:00,7.3,
11-Oct-2022 02:00,6.2,
11-Oct-2022 03:00,8.6,
11-Oct-2022 04:00,10.5,
11-Oct-2022 05:00,1.8,
11-Oct-2022 06:00,9.2,
11-Oct-2022 07:00,12,
11-Oct-2022 08:00,11.7,
11-Oct-2022 09:00,11.7,
11-Oct-2022 10:00,8.6,
11-Oct-2022 11:00,8.5,
11-Oct-2022 12:00,9,
11-Oct-2022 13:00,9.7,
11-Oct-2022 14:00,17.4,
11-Oct-2022 15:00,18.6,
11-Oct-2022 16:00,17.3,
11-Oct-2022 17:00,11.1,
11-Oct-2022 18:00,11.4,
11-Oct-2022 19:00,11.6,
11-Oct-2022 20:00,11.6,
11-Oct-2022 21:00,11.6,
11-Oct-2022 22:00,10.4,
11-Oct-2022 23:00,8.4,
12-Oct-2022 00:00,6.7,
12-Oct-2022 01:00,9.6,
12-Oct-2022 02:00,13.4,
12-Oct-2022 03:00,14.6,
12-Oct-2022 04:00,11,
12-Oct-2022 05:00,11.2,
12-Oct-2022 06:00,16.1,
12-Oct-2022 07:00,19.7,
12-Oct-2022 08:00,25.5,
12-Oct-2022 09:00,43.1,
12-Oct-2022 10:00,28.1,
12-Oct-2022 11:00,29.1,
12-Oct-2022 12:00,30.1,
12-Oct-2022 13:00,28.9,
12-Oct-2022 14:00,16.5,
12-Oct-2022 15:00,19.2,
12-Oct-2022 16:00,20.2,
12-Oct-2022 17:00,14.2,
12-Oct-2022 18:00,38.5,
12-Oct-2022 19:00,32.9,
12-Oct-2022 20:00,21.3,
12-Oct-2022 21:00,19.7,
12-Oct-2022 22:00,15.2,
12-Oct-2022 23:00,17.2,
13-Oct-2022 00:00,11.6,
13-Oct-2022 01:00,19.9,
13-Oct-2022 02:00,14.5,
13-Oct-2022 03:00,23.9,
13-Oct-2022 04:00,24.7,
13-Oct-2022 05:00,19.6,
13-Oct-2022 06:00,20.1,
13-Oct-2022 07:00,28.3,
13-Oct-2022 08:00,13.1,
13-Oct-2022 09:00,14.3,
13-Oct-2022 10:00,13.8,
13-Oct-2022 11:00,12.9,
13-Oct-2022 12:00,11.1,
13-Oct-2022 13:00,10.3,
13-Oct-2022 14:00,10,
13-Oct-2022 15:00,7.6,
13-Oct-2022 16:00,21.9,
13-Oct-2022 17:00,23.9,
13-Oct-2022 18:00,6.9,
13-Oct-2022 19:00,7.5,
13-Oct-2022 20:00,9,
13-Oct-2022 21:00,7.4,
13-Oct-2022 22:00,6.2,
13-Oct-2022 23:00,14.2,
14-Oct-2022 00:00,3.9,
14-Oct-2022 01:00,6.7,
14-Oct-2022 02:00,11.3,
14-Oct-2022 03:00,10.5,
14-Oct-2022 04:00,10.2,
14-Oct-2022 05:00,9.4,
14-Oct-2022 06:00,9.6,
14-Oct-2022 07:00,10.9,
14-Oct-2022 08:00,10.2,
14-Oct-2022 09:00,15.7,
14-Oct-2022 10:00,14.9,
14-Oct-2022 11:00,10.5,
14-Oct-2022 12:00,7.9,
14-Oct-2022 13:00,5.9,
14-Oct-2022 14:00,13,
14-Oct-2022 15:00,10,
14-Oct-2022 16:00,24.7,
14-Oct-2022 17:00,8.6,
14-Oct-2022 18:00,8,
14-Oct-2022 19:00,8.5,
14-Oct-2022 20:00,9.5,
14-Oct-2022 21:00,8.1,
14-Oct-2022 22:00,6.1,
14-Oct-2022 23:00,7.4,
15-Oct-2022 00:00,6.6,
15-Oct-2022 01:00,10.4,
15-Oct-2022 02:00,7.2,
15-Oct-2022 03:00,8.3,
15-Oct-2022 04:00,10.4,
15-Oct-2022 05:00,6.1,
15-Oct-2022 06:00,11,
15-Oct-2022 07:00,16.1,
15-Oct-2022 08:00,14.2,
15-Oct-2022 09:00,9.5,
15-Oct-2022 10:00,8.5,
15-Oct-2022 11:00,7.4,
15-Oct-2022 12:00,9.7,
15-Oct-2022 13:00,11.3,
15-Oct-2022 14:00,48.2,
15-Oct-2022 15:00,16.4,
15-Oct-2022 16:00,10.2,
15-Oct-2022 17:00,10.6,
15-Oct-2022 18:00,11.7,
15-Oct-2022 19:00,9.3,
15-Oct-2022 20:00,10.2,
15-Oct-2022 21:00,11.9,
15-Oct-2022 22:00,22,
15-Oct-2022 23:00,42.3,
16-Oct-2022 00:00,36.7,
16-Oct-2022 01:00,30.6,
16-Oct-2022 02:00,20.9,
16-Oct-2022 03:00,21.7,
16-Oct-2022 04:00,24.9,
16-Oct-2022 05:00,26,
16-Oct-2022 06:00,29.1,
16-Oct-2022 07:00,32.4,
16-Oct-2022 08:00,44.1,
16-Oct-2022 09:00,26.3,
16-Oct-2022 10:00,25.8,
16-Oct-2022 11:00,14,
16-Oct-2022 12:00,24.6,
16-Oct-2022 13:00,25.1,
16-Oct-2022 14:00,26.1,
16-Oct-2022 15:00,22.8,
16-Oct-2022 16:00,24.7,
16-Oct-2022 17:00,21.1,
16-Oct-2022 18:00,21.1,
16-Oct-2022 19:00,18.3,
16-Oct-2022 20:00,21.1,
16-Oct-2022 21:00,23.3,
16-Oct-2022 22:00,19.5,
16-Oct-2022 23:00,19.6,
17-Oct-2022 00:00,18.1,
17-Oct-2022 01:00,18.3,
17-Oct-2022 02:00,18.6,
17-Oct-2022 03:00,25.8,
17-Oct-2022 04:00,21.6,
17-Oct-2022 05:00,23.4,
17-Oct-2022 06:00,25,
17-Oct-2022 07:00,28.1,
17-Oct-2022 08:00,34.5,
17-Oct-2022 09:00,26.6,
17-Oct-2022 10:00,25.3,
17-Oct-2022 11:00,18.3,
17-Oct-2022 12:00,21.8,
17-Oct-2022 13:00,15.2,
17-Oct-2022 14:00,26.6,
17-Oct-2022 15:00,16.6,
17-Oct-2022 16:00,18,
17-Oct-2022 17:00,15,
17-Oct-2022 18:00,15.6,
17-Oct-2022 19:00,12.8,
17-Oct-2022 20:00,15.3,
17-Oct-2022 21:00,14.5,
17-Oct-2022 22:00,10.5,
17-Oct-2022 23:00,9.8,
18-Oct-2022 00:00,11.5,
18-Oct-2022 01:00,14.6,
18-Oct-2022 02:00,15.3,
18-Oct-2022 03:00,16.5,
18-Oct-2022 04:00,17.7,
18-Oct-2022 05:00,13,
18-Oct-2022 06:00,16.3,
18-Oct-2022 07:00,18.6,
18-Oct-2022 08:00,18.6,
18-Oct-2022 09:00,16.6,
18-Oct-2022 10:00,15.8,
18-Oct-2022 11:00,15.1,
18-Oct-2022 12:00,11.1,
18-Oct-2022 13:00,10.2,
18-Oct-2022 14:00,13.6,
18-Oct-2022 15:00,25.3,
18-Oct-2022 16:00,21.3,
18-Oct-2022 17:00,9.7,
18-Oct-2022 18:00,10.6,
18-Oct-2022 19:00,9.7,
18-Oct-2022 20:00,9.7,
18-Oct-2022 21:00,8.1,
18-Oct-2022 22:00,5.7,
18-Oct-2022 23:00,9.7,
19-Oct-2022 00:00,8.9,
19-Oct-2022 01:00,8.4,
19-Oct-2022 02:00,10.5,
19-Oct-2022 03:00,10.4,
19-Oct-2022 04:00,9.9,
19-Oct-2022 05:00,11.1,
19-Oct-2022 06:00,10.2,
19-Oct-2022 07:00,18.7,
19-Oct-2022 08:00,16.5,
19-Oct-2022 09:00,15.7,
19-Oct-2022 10:00,14.3,
19-Oct-2022 11:00,11.6,
19-Oct-2022 12:00,11.6,
19-Oct-2022 13:00,8.7,
19-Oct-2022 14:00,9.7,
19-Oct-2022 15:00,8.1,
19-Oct-2022 16:00,8.5,
19-Oct-2022 17:00,6.5,
19-Oct-2022 18:00,9.2,
19-Oct-2022 19:00,9.2,
19-Oct-2022 20:00,6.9,
19-Oct-2022 21:00,3.7,
19-Oct-2022 22:00,3.8,
19-Oct-2022 23:00,7.1,
20-Oct-2022 00:00,9.7,
20-Oct-2022 01:00,7.8,
20-Oct-2022 02:00,8.7,
20-Oct-2022 03:00,6.8,
20-Oct-2022 04:00,9.9,
20-Oct-2022 05:00,9.4,
20-Oct-2022 06:00,8,
20-Oct-2022 07:00,17.9,
20-Oct-2022 08:00,12.2,
20-Oct-2022 09:00,9.4,
20-Oct-2022 10:00,10,
20-Oct-2022 11:00,9.2,
20-Oct-2022 12:00,31.7,
20-Oct-2022 13:00,30.1,
20-Oct-2022 14:00,26.1,
20-Oct-2022 15:00,14.3,
20-Oct-2022 16:00,9.2,
20-Oct-2022 17:00,14.8,
20-Oct-2022 18:00,6,
20-Oct-2022 19:00,9.1,
20-Oct-2022 20:00,9.7,
20-Oct-2022 21:00,3.4,
20-Oct-2022 22:00,5.1,
20-Oct-2022 23:00,13.1,
21-Oct-2022 00:00,7.5,
21-Oct-2022 01:00,10.1,
21-Oct-2022 02:00,16.7,
21-Oct-2022 03:00,9.4,
21-Oct-2022 04:00,8.6,
21-Oct-2022 05:00,10.7,
21-Oct-2022 06:00,7,
21-Oct-2022 07:00,14.6,
21-Oct-2022 08:00,14.1,
21-Oct-2022 09:00,9.2,
21-Oct-2022 10:00,10.5,
21-Oct-2022 11:00,17.5,
21-Oct-2022 12:00,20.9,
21-Oct-2022 13:00,12.5,
21-Oct-2022 14:00,13.8,
21-Oct-2022 15:00,16.2,
21-Oct-2022 16:00,16.2,
21-Oct-2022 17:00,21.8,
21-Oct-2022 18:00,42.5,
21-Oct-2022 19:00,23.1,
21-Oct-2022 20:00,23.7,
21-Oct-2022 21:00,17.4,
21-Oct-2022 22:00,18.7,
21-Oct-2022 23:00,14,
22-Oct-2022 00:00,26.7,
22-Oct-2022 01:00,14.4,
22-Oct-2022 02:00,18.5,
22-Oct-2022 03:00,17.1,
22-Oct-2022 04:00,17.1,
22-Oct-2022 05:00,22.6,
22-Oct-2022 06:00,47.7,
22-Oct-2022 07:00,105.9,
22-Oct-2022 08:00,37.4,
22-Oct-2022 09:00,43,
22-Oct-2022 10:00,44.1,
22-Oct-2022 11:00,22.7,
22-Oct-2022 12:00,138.2,
22-Oct-2022 13:00,105.8,
22-Oct-2022 14:00,41.8,
22-Oct-2022 15:00,17,
22-Oct-2022 16:00,30.5,
22-Oct-2022 17:00,57.2,
22-Oct-2022 18:00,11.8,
22-Oct-2022 19:00,18.3,
22-Oct-2022 20:00,24.5,
22-Oct-2022 21:00,17.8,
22-Oct-2022 22:00,16,
22-Oct-2022 23:00,36.2,
23-Oct-2022 00:00,42.1,
23-Oct-2022 01:00,34.3,
23-Oct-2022 02:00,33.3,
23-Oct-2022 03:00,46.9,
23-Oct-2022 04:00,32.3,
23-Oct-2022 05:00,23.5,
23-Oct-2022 06:00,18.7,
23-Oct-2022 07:00,19.8,
23-Oct-2022 08:00,16,
23-Oct-2022 09:00,10.2,
23-Oct-2022 10:00,16.4,
23-Oct-2022 11:00,11.1,
23-Oct-2022 12:00,12.5,
23-Oct-2022 13:00,8.6,
23-Oct-2022 14:00,13.4,
23-Oct-2022 15:00,12.5,
23-Oct-2022 16:00,13.4,
23-Oct-2022 17:00,9.9,
23-Oct-2022 18:00,18.2,
23-Oct-2022 19:00,34.6,
23-Oct-2022 20:00,19.4,
23-Oct-2022 21:00,21.5,
23-Oct-2022 22:00,18.5,
23-Oct-2022 23:00,12.9,
24-Oct-2022 00:00,7.2,
24-Oct-2022 01:00,5.5,
24-Oct-2022 02:00,4.5,
24-Oct-2022 03:00,5.5,
24-Oct-2022 04:00,6.6,
24-Oct-2022 05:00,4.8,
24-Oct-2022 06:00,8.4,
24-Oct-2022 07:00,9.4,
24-Oct-2022 08:00,-0.2,
24-Oct-2022 09:00,-5.4,
24-Oct-2022 10:00,4.5,
24-Oct-2022 11:00,9.2,
24-Oct-2022 12:00,5.3,
24-Oct-2022 13:00,5.5,
24-Oct-2022 14:00,10.6,
24-Oct-2022 15:00,8.2,
24-Oct-2022 16:00,13.1,
24-Oct-2022 17:00,4.2,
24-Oct-2022 18:00,8.9,
24-Oct-2022 19:00,9.7,
24-Oct-2022 20:00,5.5,
24-Oct-2022 21:00,9.2,
24-Oct-2022 22:00,6.7,
24-Oct-2022 23:00,6.9,
25-Oct-2022 00:00,6.4,
25-Oct-2022 01:00,5.1,
25-Oct-2022 02:00,14.1,
25-Oct-2022 03:00,6.1,
25-Oct-2022 04:00,9.8,
25-Oct-2022 05:00,7.5,
25-Oct-2022 06:00,6.9,
25-Oct-2022 07:00,,BA
25-Oct-2022 08:00,,BA
25-Oct-2022 09:00,,BA
25-Oct-2022 10:00,,BA
25-Oct-2022 11:00,1.9,
25-Oct-2022 12:00,3.2,
25-Oct-2022 13:00,6.5,
25-Oct-2022 14:00,16.7,
25-Oct-2022 15:00,7.8,
25-Oct-2022 16:00,19.2,
25-Oct-2022 17:00,10.4,
25-Oct-2022 18:00,13.1,
25-Oct-2022 19:00,13.2,
25-Oct-2022 20:00,13.2,
25-Oct-2022 21:00,15.4,
25-Oct-2022 22:00,11.8,
25-Oct-2022 23:00,12.2,
26-Oct-2022 00:00,12.9,
26-Oct-2022 01:00,11.5,
26-Oct-2022 02:00,10.1,
26-Oct-2022 03:00,13.5,
26-Oct-2022 04:00,23.3,
26-Oct-2022 05:00,9.5,
26-Oct-2022 06:00,15.6,
26-Oct-2022 07:00,8.7,
26-Oct-2022 08:00,8,
26-Oct-2022 09:00,0,
26-Oct-2022 10:00,13.9,
26-Oct-2022 11:00,10.5,
26-Oct-2022 12:00,8.4,
26-Oct-2022 13:00,12.6,
26-Oct-2022 14:00,19.4,
26-Oct-2022 15:00,14.3,
26-Oct-2022 16:00,13.1,
26-Oct-2022 17:00,11.8,
26-Oct-2022 18:00,19.2,
26-Oct-2022 19:00,12.7,
26-Oct-2022 20:00,15.3,
26-Oct-2022 21:00,18.2,
26-Oct-2022 22:00,13.3,
26-Oct-2022 23:00,12.6,
27-Oct-2022 00:00,14.8,
27-Oct-2022 01:00,16.2,
27-Oct-2022 02:00,18,
27-Oct-2022 03:00,18,
27-Oct-2022 04:00,10.6,
27-Oct-2022 05:00,8.2,
27-Oct-2022 06:00,8.5,
27-Oct-2022 07:00,8.5,
27-Oct-2022 08:00,5.7,
27-Oct-2022 09:00,7,
27-Oct-2022 10:00,4.4,
27-Oct-2022 11:00,4.3,
27-Oct-2022 12:00,11.5,
27-Oct-2022 13:00,,BL
27-Oct-2022 14:00,,BL
27-Oct-2022 15:00,,BL
27-Oct-2022 16:00,19.5,
27-Oct-2022 17:00,19.6,
27-Oct-2022 18:00,14.5,
27-Oct-2022 19:00,14,
27-Oct-2022 20:00,15.4,
27-Oct-2022 21:00,13,
27-Oct-2022 22:00,11.8,
27-Oct-2022 23:00,11.2,
28-Oct-2022 00:00,10,
28-Oct-2022 01:00,10.7,
28-Oct-2022 02:00,9.6,
28-Oct-2022 03:00,10.4,
28-Oct-2022 04:00,12.2,
28-Oct-2022 05:00,9.1,
28-Oct-2022 06:00,16.3,
28-Oct-2022 07:00,25,
28-Oct-2022 08:00,1.9,
28-Oct-2022 09:00,18.8,
28-Oct-2022 10:00,7.5,
28-Oct-2022 11:00,6.4,
28-Oct-2022 12:00,6.4,
28-Oct-2022 13:00,8.7,
28-Oct-2022 14:00,9.5,
28-Oct-2022 15:00,7.7,
28-Oct-2022 16:00,19.9,
28-Oct-2022 17:00,13.5,
28-Oct-2022 18:00,9.1,
28-Oct-2022 19:00,10,
28-Oct-2022 20:00,12.7,
28-Oct-2022 21:00,12.1,
28-Oct-2022 22:00,10,
28-Oct-2022 23:00,29.7,
29-Oct-2022 00:00,9.5,
29-Oct-2022 01:00,14,
29-Oct-2022 02:00,8.8,
29-Oct-2022 03:00,9.2,
29-Oct-2022 04:00,8.6,
29-Oct-2022 05:00,8.2,
29-Oct-2022 06:00,8.1,
29-Oct-2022 07:00,8.4,
29-Oct-2022 08:00,6.4,
29-Oct-2022 09:00,4.6,
29-Oct-2022 10:00,7.3,
29-Oct-2022 11:00,12,
29-Oct-2022 12:00,9.9,
29-Oct-2022 13:00,10.9,
29-Oct-2022 14:00,8.8,
29-Oct-2022 15:00,9.4,
29-Oct-2022 16:00,14.3,
29-Oct-2022 17:00,11.5,
29-Oct-2022 18:00,10.8,
29-Oct-2022 19:00,9.1,
29-Oct-2022 20:00,9.9,
29-Oct-2022 21:00,9.8,
29-Oct-2022 22:00,8.5,
29-Oct-2022 23:00,8.2,
30-Oct-2022 00:00,8.7,
30-Oct-2022 01:00,7.4,
30-Oct-2022 02:00,7.6,
30-Oct-2022 03:00,9.1,
30-Oct-2022 04:00,10.3,
30-Oct-2022 05:00,9.4,
30-Oct-2022 06:00,9.7,
30-Oct-2022 07:00,7.3,
30-Oct-2022 08:00,7.4,
30-Oct-2022 09:00,6.5,
30-Oct-2022 10:00,15.2,
30-Oct-2022 11:00,10.7,
30-Oct-2022 12:00,11.5,
30-Oct-2022 13:00,9,
30-Oct-2022 14:00,10,
30-Oct-2022 15:00,7.1,
30-Oct-2022 16:00,6.4,
30-Oct-2022 17:00,7.8,
30-Oct-2022 18:00,8.3,
30-Oct-2022 19:00,8.4,
30-Oct-2022 20:00,9.7,
30-Oct-2022 21:00,9.9,
30-Oct-2022 22:00,8.1,
30-Oct-2022 23:00,7.2,
31-Oct-2022 00:00,8.1,
31-Oct-2022 01:00,6.7,
31-Oct-2022 02:00,4.9,
31-Oct-2022 03:00,8.8,
31-Oct-2022 04:00,5.4,
31-Oct-2022 05:00,5.6,
31-Oct-2022 06:00,6.5,
31-Oct-2022 07:00,6.2,
31-Oct-2022 08:00,12.4,
31-Oct-2022 09:00,11.7,
31-Oct-2022 10:00,17.9,
31-Oct-2022 11:00,8.3,
31-Oct-2022 12:00,8.8,
31-Oct-2022 13:00,6.1,
31-Oct-2022 14:00,14.5,
31-Oct-2022 15:00,13,
31-Oct-2022 16:00,17.4,
31-Oct-2022 17:00,11.6,
31-Oct-2022 18:00,9.3,
31-Oct-2022 19:00,9.3,
31-Oct-2022 20:00,10.5,
31-Oct-2022 21:00,7.5,
31-Oct-2022 22:00,7,
31-Oct-2022 23:00,6.4,
